When you browse on this site, cookies collect data to enhance your experience and personalize the content and advertising you see.
Visit our Privacy Policy to learn more. By continuing to use the site, you agree to this use of cookies and data.
  • Em Portugal
  • Lista de países
  • Para 7 dias
  • Temperatura da água
  • Mapa do tempo
  • Widgets de tempo
  • user-avatar
    Iniciar Sessão

    Previsão horária em Canillo

    Hoje, 28 Maio, Quinta-feira

    Tempo Temperatura Precipitação Vento Pressão Humidade
    00:00 +9°C° 0 mm 1 m/s 625 mmHg 93%
    01:00 +9°C° 0 mm 1 m/s 624 mmHg 92%
    02:00 +8°C° 0 mm 1 m/s 624 mmHg 91%
    03:00 +8°C° 0 mm 1 m/s 624 mmHg 90%
    04:00 +9°C° 0 mm 1 m/s 624 mmHg 87%
    05:00 +9°C° 0 mm 1 m/s 624 mmHg 83%
    06:00 +10°C° 0 mm 1 m/s 624 mmHg 80%
    07:00 +13°C° 0 mm 1 m/s 625 mmHg 68%
    08:00 +15°C° 0 mm 1 m/s 626 mmHg 55%
    09:00 +18°C° 0 mm 1 m/s 627 mmHg 43%
    10:00 +19°C° 0 mm 1 m/s 627 mmHg 41%
    11:00 +20°C° 0 mm 1 m/s 627 mmHg 39%
    12:00 +20°C° 0 mm 2 m/s 627 mmHg 37%
    13:00 +19°C° 0.1 mm 2 m/s 626 mmHg 41%
    14:00 +19°C° 0.1 mm 2 m/s 626 mmHg 46%
    15:00 +19°C° 0.1 mm 1 m/s 625 mmHg 50%
    16:00 +18°C° 0.3 mm 1 m/s 624 mmHg 58%
    17:00 +16°C° 0.3 mm 1 m/s 623 mmHg 66%
    18:00 +13°C° 0.3 mm 0 m/s 623 mmHg 74%
    19:00 +13°C° 0 mm 1 m/s 622 mmHg 79%
    20:00 +11°C° 0 mm 1 m/s 622 mmHg 83%
    21:00 +9°C° 0 mm 1 m/s 621 mmHg 88%
    22:00 +9°C° 0 mm 1 m/s 621 mmHg 84%
    23:00 +9°C° 0 mm 1 m/s 620 mmHg 80%

    Amanhã, 29 Maio, Sexta-feira

    Tempo Temperatura Precipitação Vento Pressão Humidade
    00:00 +8°C° 0 mm 1 m/s 620 mmHg 76%
    01:00 +8°C° 0 mm 1 m/s 619 mmHg 70%
    02:00 +8°C° 0 mm 1 m/s 619 mmHg 64%
    03:00 +8°C° 0 mm 1 m/s 619 mmHg 58%
    04:00 +9°C° 0 mm 1 m/s 619 mmHg 58%
    05:00 +9°C° 0 mm 1 m/s 619 mmHg 58%
    06:00 +10°C° 0 mm 1 m/s 619 mmHg 58%
    07:00 +13°C° 0 mm 1 m/s 620 mmHg 51%
    08:00 +15°C° 0 mm 1 m/s 621 mmHg 43%
    09:00 +19°C° 0 mm 1 m/s 622 mmHg 36%
    10:00 +19°C° 0 mm 1 m/s 622 mmHg 36%
    11:00 +19°C° 0 mm 2 m/s 622 mmHg 35%
    12:00 +20°C° 0 mm 2 m/s 622 mmHg 35%
    13:00 +19°C° 0.2 mm 2 m/s 621 mmHg 39%
    14:00 +19°C° 0.2 mm 2 m/s 621 mmHg 43%
    15:00 +18°C° 0.2 mm 3 m/s 620 mmHg 48%
    16:00 +16°C° 0.8 mm 2 m/s 620 mmHg 59%
    17:00 +15°C° 0.8 mm 2 m/s 619 mmHg 71%
    18:00 +13°C° 0.8 mm 1 m/s 618 mmHg 83%
    19:00 +12°C° 0.2 mm 1 m/s 618 mmHg 87%
    20:00 +10°C° 0.2 mm 1 m/s 618 mmHg 91%
    21:00 +9°C° 0.2 mm 1 m/s 618 mmHg 95%
    22:00 +8°C° 0 mm 1 m/s 618 mmHg 93%
    23:00 +8°C° 0 mm 1 m/s 618 mmHg 92%

    Depois de amanhã, 30 Maio, Sábado

    Tempo Temperatura Precipitação Vento Pressão Humidade
    00:00 +8°C° 0 mm 1 m/s 618 mmHg 91%
    01:00 +8°C° 0 mm 1 m/s 617 mmHg 90%
    02:00 +7°C° 0 mm 1 m/s 617 mmHg 90%
    03:00 +7°C° 0 mm 1 m/s 617 mmHg 90%
    04:00 +8°C° 0 mm 1 m/s 617 mmHg 88%
    05:00 +9°C° 0 mm 1 m/s 618 mmHg 86%
    06:00 +10°C° 0 mm 1 m/s 618 mmHg 84%
    07:00 +12°C° 0 mm 1 m/s 619 mmHg 73%
    08:00 +14°C° 0 mm 1 m/s 620 mmHg 61%
    09:00 +16°C° 0 mm 1 m/s 621 mmHg 50%
    10:00 +18°C° 0 mm 1 m/s 621 mmHg 48%
    11:00 +18°C° 0 mm 2 m/s 621 mmHg 45%
    12:00 +19°C° 0 mm 2 m/s 622 mmHg 42%
    13:00 +18°C° 0.2 mm 2 m/s 621 mmHg 47%
    14:00 +18°C° 0.2 mm 2 m/s 621 mmHg 52%
    15:00 +17°C° 0.2 mm 2 m/s 620 mmHg 57%
    16:00 +16°C° 0.2 mm 1 m/s 620 mmHg 64%
    17:00 +15°C° 0.2 mm 1 m/s 619 mmHg 70%
    18:00 +14°C° 0.2 mm 1 m/s 619 mmHg 77%
    19:00 +13°C° 0 mm 1 m/s 618 mmHg 82%
    20:00 +11°C° 0 mm 1 m/s 618 mmHg 88%
    21:00 +9°C° 0 mm 1 m/s 618 mmHg 93%
    22:00 +9°C° 0 mm 1 m/s 618 mmHg 92%
    23:00 +9°C° 0 mm 1 m/s 617 mmHg 91%

    31 Maio, Domingo

    Tempo Temperatura Precipitação Vento Pressão Humidade
    00:00 +9°C° 0 mm 1 m/s 617 mmHg 90%
    01:00 +8°C° 0 mm 1 m/s 617 mmHg 89%
    02:00 +8°C° 0 mm 1 m/s 617 mmHg 88%
    03:00 +8°C° 0 mm 1 m/s 617 mmHg 87%
    04:00 +9°C° 0 mm 1 m/s 617 mmHg 83%
    05:00 +10°C° 0 mm 1 m/s 618 mmHg 80%
    06:00 +11°C° 0 mm 1 m/s 618 mmHg 76%
    07:00 +13°C° 0 mm 1 m/s 619 mmHg 66%
    08:00 +15°C° 0 mm 1 m/s 620 mmHg 56%
    09:00 +18°C° 0 mm 1 m/s 621 mmHg 46%
    10:00 +18°C° 0 mm 2 m/s 621 mmHg 44%
    11:00 +19°C° 0 mm 2 m/s 621 mmHg 41%
    12:00 +20°C° 0 mm 2 m/s 622 mmHg 39%
    13:00 +20°C° 0.2 mm 2 m/s 621 mmHg 43%
    14:00 +19°C° 0.2 mm 2 m/s 621 mmHg 48%
    15:00 +19°C° 0.2 mm 2 m/s 620 mmHg 52%
    16:00 +18°C° 0.4 mm 1 m/s 620 mmHg 59%
    17:00 +16°C° 0.4 mm 1 m/s 619 mmHg 67%
    18:00 +15°C° 0.4 mm 1 m/s 619 mmHg 74%
    19:00 +14°C° 0.1 mm 1 m/s 618 mmHg 79%
    20:00 +12°C° 0.1 mm 1 m/s 618 mmHg 83%
    21:00 +10°C° 0.1 mm 1 m/s 618 mmHg 88%
    22:00 +10°C° 0 mm 1 m/s 617 mmHg 88%
    23:00 +10°C° 0 mm 1 m/s 617 mmHg 87%

    1 Junho, Segunda-feira

    Tempo Temperatura Precipitação Vento Pressão Humidade
    00:00 +10°C° 0 mm 1 m/s 617 mmHg 87%
    01:00 +10°C° 0 mm 1 m/s 617 mmHg 87%
    02:00 +10°C° 0 mm 1 m/s 617 mmHg 87%
    03:00 +9°C° 0 mm 1 m/s 617 mmHg 87%
    04:00 +10°C° 0 mm 1 m/s 617 mmHg 85%
    05:00 +11°C° 0 mm 1 m/s 618 mmHg 83%
    06:00 +12°C° 0 mm 1 m/s 618 mmHg 81%
    07:00 +14°C° 0.1 mm 1 m/s 619 mmHg 74%
    08:00 +16°C° 0.1 mm 1 m/s 620 mmHg 67%
    09:00 +19°C° 0.1 mm 1 m/s 620 mmHg 59%
    10:00 +18°C° 1 mm 1 m/s 620 mmHg 64%
    11:00 +18°C° 1 mm 1 m/s 620 mmHg 68%
    12:00 +18°C° 1 mm 1 m/s 619 mmHg 72%
    13:00 +16°C° 1.4 mm 1 m/s 619 mmHg 74%
    14:00 +16°C° 1.4 mm 1 m/s 619 mmHg 76%
    15:00 +16°C° 1.4 mm 1 m/s 618 mmHg 77%
    16:00 +14°C° 2.1 mm 1 m/s 618 mmHg 82%
    17:00 +13°C° 2.1 mm 1 m/s 617 mmHg 87%
    18:00 +12°C° 2.1 mm 1 m/s 617 mmHg 93%
    19:00 +11°C° 0.1 mm 1 m/s 616 mmHg 93%
    20:00 +10°C° 0.1 mm 1 m/s 616 mmHg 94%
    21:00 +9°C° 0.1 mm 1 m/s 616 mmHg 94%
    22:00 +9°C° 0 mm 1 m/s 616 mmHg 93%
    23:00 +9°C° 0 mm 1 m/s 616 mmHg 91%

    2 Junho, Terça-feira

    Tempo Temperatura Precipitação Vento Pressão Humidade
    00:00 +8°C° 0 mm 1 m/s 616 mmHg 89%
    01:00 +8°C° 0 mm 1 m/s 615 mmHg 88%
    02:00 +8°C° 0 mm 1 m/s 615 mmHg 86%
    03:00 +8°C° 0 mm 1 m/s 615 mmHg 85%
    04:00 +9°C° 0 mm 1 m/s 616 mmHg 84%
    05:00 +10°C° 0 mm 1 m/s 616 mmHg 83%
    06:00 +11°C° 0 mm 1 m/s 617 mmHg 81%
    07:00 +12°C° 0 mm 1 m/s 617 mmHg 76%
    08:00 +14°C° 0 mm 1 m/s 618 mmHg 70%
    09:00 +15°C° 0 mm 1 m/s 619 mmHg 64%
    10:00 +15°C° 0.3 mm 1 m/s 619 mmHg 66%
    11:00 +15°C° 0.3 mm 1 m/s 619 mmHg 68%
    12:00 +15°C° 0.3 mm 1 m/s 619 mmHg 70%
    13:00 +15°C° 1 mm 1 m/s 618 mmHg 73%
    14:00 +15°C° 1 mm 1 m/s 618 mmHg 75%
    15:00 +15°C° 1 mm 1 m/s 617 mmHg 78%
    16:00 +14°C° 0.7 mm 1 m/s 617 mmHg 81%
    17:00 +14°C° 0.7 mm 1 m/s 617 mmHg 84%
    18:00 +12°C° 0.7 mm 0 m/s 616 mmHg 86%
    19:00 +11°C° 0.3 mm 0 m/s 616 mmHg 89%
    20:00 +10°C° 0.3 mm 0 m/s 616 mmHg 91%
    21:00 +9°C° 0.3 mm 0 m/s 616 mmHg 93%
    22:00 +9°C° 0.3 mm 0 m/s 616 mmHg 93%
    23:00 +9°C° 0.3 mm 0 m/s 615 mmHg 93%
    Mostrar mais